Delray Beach, FL

3:01 AM EST on December 25, 2014 (GMT -0500)
Pompano Beach | Change Station
CLOSE
Current Station
Airport
Location: Pompano Beach,
Elevation: 20 ft
Nearby Weather Stations

Elev 20 ft 26.25 °N, 80.11 °W | Updated 8 minutes ago

Thunderstorm
Thunderstorm
77 °F
Feels Like 77 °F
N
9
Wind Variable Wind from SSW

Today
High -- | Low -- °F
--% Chance of Precip.
Yesterday
High -- | Low -- °F
Precip. -- in
7:05 AM 5:35 PM
Waxing Crescent, 14% visible
Pressure 30.00 in
Visibility 5.0 miles
Clouds Few 1900 ft
Scattered Clouds 2700 ft
Mostly Cloudy 5500 ft
Dew Point 73 °F
Humidity 88%
Rainfall 0.02 in
Snow Depth Not available.
UV 0 out of 12
Pollen 3.90 out of 12
Air Quality Not available.
Flu Activity Not available.
METAR KPMP 250753Z AUTO 21008KT 5SM -RA BR FEW019 SCT027 BKN055 25/23 A2999 RMK AO2 LTG DSNT N RAE0655B41 SLP157 P0002 T02500228

More Conditions Fewer Conditions

Pressure 30.00 in
Visibility 5.0 miles
Clouds Few 1900 ft
Scattered Clouds 2700 ft
Mostly Cloudy 5500 ft
Dew Point 73 °F
Humidity 88%
Rainfall 0.02 in
Snow Depth Not available.
UV 0 out of 12
Pollen 3.90 out of 12
Air Quality Not available.
Flu Activity Not available.
METAR KPMP 250753Z AUTO 21008KT 5SM -RA BR FEW019 SCT027 BKN055 25/23 A2999 RMK AO2 LTG DSNT N RAE0655B41 SLP157 P0002 T02500228

More Conditions Fewer Conditions

Nowcast | as of 1:40 am EST on December 25, 2014

A line of showers and embedded thunderstorms over the interior areas of South Florida will continue to move east northeast around 25 mph into the Metro areas of Palm Beach and Broward counties through early this morning. Any storms that do move through the area will be capable of producing wind gusts up to 35 mph...lightning strikes...and locally heavy rainfall. If you see lightning or hear thunder move inside until the storms have passed by.

×

10-Day Weather Forecast

Almanac

Astronomy

Dec. 25, 2014 Rise Set
Actual Time
Civil Twilight
Nautical Twilight
Astronomical Twilight
Moon
Length of Visible Light
Length of Day
Tomorrow will be .
, % of the Moon is Illuminated

Today's Extremes

State Highs State Lows

Community

WunderPhotos

Upload Photos

1,780,250 photos uploaded!

WunderBlogs® & News

Nearby

Air Quality

  Air Quality AQ Index Pollutant
Not available.

Snow Depth

Station Depth Elevation

Earthquake Activity

City Distance Mag. Time & Date
Minimum magnitude displayed is 2.5.

Coastal Water Temperatures

Place Temperature

Nearby Weather Stations